#timestamp,LO_Frequency,Hit,StdDev 
1553104815.3,286047001.2,N
1553104835.1,286047001.1,N
1553104855.9,286046998.5,N
1553104875.7,286047000.8,N
1553104895.5,286047000.0,N
1553104915.4,286047000.6,N
1553104935.2,286047000.5,N
1553104955.1,286047000.6,N
1553104956.0,286047000.6,N
1553104975.8,286047000.5,N
1553104995.6,286047000.4,N
1553105015.5,286046999.0,N
1553105035.3,286046998.5,N
1553105055.1,286046998.5,N
1553105075.9,286046998.7,N
1553105095.7,286046999.3,N
1553105115.6,286046998.1,N
1553105135.4,286046998.1,N
1553105155.2,286046998.1,N
1553105175.1,286046999.4,N
1553105176.0,286046999.4,N
1553105195.8,286046997.4,N
1553105215.7,286046999.5,N
1553105235.5,286046999.0,N
1553105255.3,286046998.3,N
1553105275.2,286047000.1,N
1553105295.0,286047000.9,N
1553105295.9,286047000.9,N
1553105315.7,286046997.0,N
1553105335.6,286046997.8,N
1553105355.4,286046996.9,N
1553105375.3,286046999.6,N
1553105395.1,286046996.6,N
1553105396.0,286046996.6,N
1553105415.8,286046999.6,N
1553105435.7,286047001.2,N
1553105455.5,286047000.5,N
1553105475.3,286047002.2,N
1553105495.2,286047003.8,N
1553105515.0,286047002.0,N
1553105515.9,286047002.0,N
1553105535.8,286047000.2,N
1553105555.6,286047002.8,N
1553105575.4,286047000.7,N
1553105595.3,286047000.7,N
1553105615.1,286046998.3,N
1553105635.8,286046997.0,N
1553105655.7,286046997.0,N
1553105675.5,286046997.3,N
1553105695.4,286046995.0,N
1553105715.2,286046997.9,N
1553105735.0,286046997.1,N
1553105735.9,286046997.1,N
1553105755.8,286046999.5,N
1553105775.6,286046998.7,N
1553105795.4,286046998.1,N
1553105815.3,286046998.5,N
1553105835.1,286047000.8,N
1553105855.9,286047000.2,N
1553105875.7,286047002.3,N
1553105895.5,286046999.8,N
1553105915.4,286047001.1,N
1553105935.2,286046998.2,N
1553105955.0,286046998.4,N
1553105955.9,286046998.4,N
1553105975.8,286046998.4,N
1553105995.6,286046998.7,N
1553106015.5,286046999.6,N
1553106035.3,286046999.2,N
1553106055.1,286047000.5,N
1553106075.9,286047000.2,N
1553106095.7,286047001.8,N
1553106115.5,286047001.7,N
1553106135.4,286047004.4,N
1553106155.2,286047003.9,N
1553106175.1,286047003.9,N
1553106176.0,286047003.9,N
1553106195.8,286047001.3,N
1553106215.6,286047002.3,N
1553106235.5,286047000.6,N
1553106255.3,286046998.1,N
1553106275.1,286046998.3,N
1553106295.9,286046998.2,N
1553106315.7,286046998.6,N
1553106335.6,286046998.8,N
1553106355.4,286046998.7,N
1553106375.2,286046999.0,N
1553106395.1,286047000.7,N
1553106396.0,286047000.7,N
1553106415.8,286047000.4,N
1553106435.6,286047002.7,N
1553106455.5,286047000.2,N
1553106475.3,286047000.8,N
1553106495.1,286047000.9,N
1553106515.9,286047000.3,N
1553106535.7,286047002.8,N
1553106555.6,286047002.8,N
1553106575.4,286047002.5,N
1553106595.2,286047002.3,N
1553106615.1,286047000.0,N
1553106616.0,286047000.0,N
1553106635.8,286047002.5,N
1553106655.6,286047002.0,N
1553106675.5,286047001.6,N
1553106695.3,286046999.9,N
1553106715.2,286047000.9,N
1553106735.9,286047000.5,N
1553106755.7,286047000.6,N
1553106775.6,286047000.7,N
1553106795.4,286046998.5,N
1553106815.2,286046998.2,N
1553106835.1,286047002.8,N
1553106836.0,286047002.8,N
1553106855.8,286046998.1,N
1553106875.7,286047000.5,N
1553106895.5,286047001.2,N
1553106915.3,286047002.3,N
1553106935.2,286047002.7,N
1553106955.0,286047000.2,N
1553106955.9,286047000.2,N
1553106975.7,286047000.1,N
1553106995.6,286047000.1,N
1553107015.4,286047000.0,N
1553107035.3,286047002.7,N
1553107055.1,286047000.6,N
1553107075.8,286046999.8,N
1553107095.7,286046999.7,N
1553107115.5,286046999.9,N
1553107135.4,286046999.9,N
1553107155.2,286047000.1,N
1553107175.0,286047000.4,N
1553107175.9,286047000.4,N
1553107195.8,286047000.1,N
1553107215.6,286047002.3,N
1553107235.4,286047002.8,N
1553107255.3,286046999.7,N
1553107275.1,286047002.1,N
1553107295.9,286047001.5,N
1553107315.7,286047001.6,N
1553107335.5,286047001.8,N
1553107355.4,286047004.4,Y
1553107375.2,286047002.1,P
1553107395.1,286047002.1,P
1553107396.0,286047002.1,P
1553107415.8,286047004.1,Y
1553107435.6,286047002.3,P
1553107455.5,286046998.1,P
1553107475.3,286046996.9,N
1553107495.2,286046996.6,N
1553107515.9,286046996.7,N
1553107535.7,286046999.2,N
1553107555.6,286046999.0,N
1553107575.4,286047000.6,N
1553107595.2,286046998.2,N
1553107615.1,286047000.3,N
1553107616.0,286047000.3,N
1553107635.8,286047000.3,N
1553107655.7,286046999.9,N
1553107675.5,286047002.8,N
1553107695.3,286047002.8,N
1553107715.2,286047002.1,N
1553107735.9,286047000.0,N
1553107755.7,286047000.9,N
1553107775.6,286047002.4,N
1553107795.4,286047000.7,N
1553107815.2,286047001.2,N
1553107835.1,286046999.2,N
1553107836.0,286046999.2,N
1553107855.8,286046997.3,N
1553107875.7,286046995.3,N
1553107895.5,286046996.8,N
1553107915.3,286046997.3,N
1553107935.2,286046997.4,N
1553107955.0,286046997.4,N
1553107955.9,286046997.4,N
1553107975.8,286046997.9,N
1553107995.6,286046996.5,N
1553108015.4,286046998.4,N
1553108035.3,286046997.5,N
1553108055.1,286046997.4,N
1553108075.8,286046997.9,N
1553108095.7,286046997.4,N
1553108115.5,286046999.0,N
1553108135.4,286046999.1,N
1553108155.2,286046999.5,N
1553108175.0,286046999.6,N
1553108175.9,286046999.6,N
1553108195.8,286046996.5,N
1553108215.6,286046997.3,N
1553108235.4,286046994.9,N
1553108255.3,286046995.3,N
1553108275.1,286046997.5,N
1553108295.9,286046993.3,Y
1553108315.7,286046995.1,P
1553108335.5,286046995.4,P
1553108355.4,286046997.3,N
1553108375.2,286046997.5,N
1553108395.1,286046997.5,N
1553108396.0,286046997.5,N
